7 * 24
多渠道服务支持
STARLINK-32559是美国SpaceX公司于2024年11月11日发射的星链低轨通信卫星,属于星链全球宽带互联网星座的组成部分。卫星采用平板设计、搭载Ku/Ka波段通信载荷,配备霍尔推进器,支持激光星间链路,可提供高速网络服务。作为新一代组网卫星,它将支撑星链的手机直连业务与全球覆盖能力,退役后会主动离轨坠入大气层销毁。
美国
(US)
| 数据来源 | 国际轨道数据 |
| 星历时间: | 2026-09-06T20:58:42+0800 5天前 查看轨道信息 |
| 半长轴: | 6585.302km |
| 偏心率: | 0.0003585 |
| 轨道倾角: | 42.992° |
| 近地点辐角 | 41.144° |
| 升交点赤经 | 313.749° |
| 平近点角 | 318.972° |
| 近地点: | 204.804km |
| 远地点: | 209.526km |
| 周期: | 88.639分钟 |
| 每日圈数: | 16.245733 |